When you browse on this site, cookies collect data to enhance your experience and personalize the content and advertising you see.
Visit our Privacy Policy to learn more. By continuing to use the site, you agree to this use of cookies and data.
EN

Hourly Weather Sharapanivka

Today, 11 July, Saturday

Time Temperature Precipitation Wind Pressure Humidity
00:00 +20°C° 0 mm 3 mps 744 mmHg 70%
01:00 +19°C° 0 mm 3 mps 744 mmHg 70%
02:00 +18°C° 0 mm 3 mps 744 mmHg 69%
03:00 +18°C° 0 mm 3 mps 744 mmHg 70%
04:00 +18°C° 0 mm 3 mps 744 mmHg 71%
05:00 +17°C° 0 mm 2 mps 744 mmHg 72%
06:00 +19°C° 0 mm 3 mps 744 mmHg 68%
07:00 +21°C° 0 mm 3 mps 744 mmHg 64%
08:00 +24°C° 0 mm 3 mps 744 mmHg 60%
09:00 +26°C° 0 mm 3 mps 744 mmHg 57%
10:00 +27°C° 0 mm 4 mps 744 mmHg 54%
11:00 +28°C° 0 mm 4 mps 744 mmHg 51%
12:00 +28°C° 0 mm 4 mps 744 mmHg 50%
13:00 +29°C° 0 mm 4 mps 744 mmHg 50%
14:00 +29°C° 0 mm 4 mps 743 mmHg 49%
15:00 +29°C° 0 mm 4 mps 743 mmHg 51%
16:00 +29°C° 0 mm 3 mps 743 mmHg 53%
17:00 +29°C° 0 mm 3 mps 743 mmHg 55%
18:00 +27°C° 0 mm 3 mps 742 mmHg 59%
19:00 +25°C° 0 mm 2 mps 742 mmHg 62%
20:00 +24°C° 0 mm 2 mps 742 mmHg 66%
21:00 +23°C° 0 mm 2 mps 742 mmHg 67%
22:00 +21°C° 0 mm 2 mps 742 mmHg 67%
23:00 +21°C° 0 mm 2 mps 742 mmHg 68%

Tomorrow, 12 July, Sunday

Time Temperature Precipitation Wind Pressure Humidity
00:00 +20°C° 0 mm 2 mps 742 mmHg 69%
01:00 +20°C° 0 mm 2 mps 741 mmHg 70%
02:00 +19°C° 0 mm 2 mps 741 mmHg 72%
03:00 +19°C° 0 mm 2 mps 741 mmHg 73%
04:00 +19°C° 0 mm 2 mps 741 mmHg 75%
05:00 +19°C° 0 mm 1 mps 741 mmHg 76%
06:00 +21°C° 0 mm 1 mps 741 mmHg 71%
07:00 +23°C° 0 mm 1 mps 741 mmHg 67%
08:00 +25°C° 0 mm 1 mps 741 mmHg 62%
09:00 +26°C° 0 mm 1 mps 741 mmHg 58%
10:00 +27°C° 0 mm 1 mps 741 mmHg 55%
11:00 +28°C° 0 mm 1 mps 741 mmHg 51%
12:00 +28°C° 0 mm 1 mps 740 mmHg 51%
13:00 +29°C° 0 mm 1 mps 740 mmHg 51%
14:00 +29°C° 0 mm 1 mps 740 mmHg 51%
15:00 +27°C° 0.3 mm 2 mps 740 mmHg 59%
16:00 +26°C° 0.3 mm 4 mps 740 mmHg 66%
17:00 +25°C° 0.3 mm 5 mps 740 mmHg 73%
18:00 +22°C° 0.1 mm 6 mps 740 mmHg 79%
19:00 +19°C° 0.1 mm 6 mps 740 mmHg 85%
20:00 +16°C° 0.1 mm 7 mps 740 mmHg 91%
21:00 +15°C° 0.4 mm 7 mps 741 mmHg 91%
22:00 +14°C° 0.4 mm 7 mps 741 mmHg 92%
23:00 +12°C° 0.4 mm 7 mps 741 mmHg 92%

Day after tomorrow, 13 July, Monday

Time Temperature Precipitation Wind Pressure Humidity
00:00 +12°C° 0.3 mm 7 mps 741 mmHg 92%
01:00 +12°C° 0.3 mm 7 mps 741 mmHg 92%
02:00 +11°C° 0.3 mm 6 mps 741 mmHg 92%
03:00 +11°C° 0.5 mm 7 mps 741 mmHg 91%
04:00 +11°C° 0.5 mm 7 mps 741 mmHg 91%
05:00 +11°C° 0.5 mm 7 mps 741 mmHg 91%
06:00 +11°C° 0 mm 7 mps 741 mmHg 89%
07:00 +11°C° 0 mm 7 mps 741 mmHg 86%
08:00 +11°C° 0 mm 7 mps 741 mmHg 84%
09:00 +12°C° 0 mm 7 mps 741 mmHg 81%
10:00 +14°C° 0 mm 7 mps 741 mmHg 77%
11:00 +15°C° 0 mm 7 mps 741 mmHg 74%
12:00 +16°C° 0 mm 7 mps 741 mmHg 72%
13:00 +16°C° 0 mm 6 mps 741 mmHg 69%
14:00 +17°C° 0 mm 6 mps 741 mmHg 66%
15:00 +19°C° 0.1 mm 6 mps 741 mmHg 66%
16:00 +19°C° 0.1 mm 6 mps 741 mmHg 66%
17:00 +19°C° 0.1 mm 6 mps 740 mmHg 66%
18:00 +17°C° 0 mm 5 mps 740 mmHg 70%
19:00 +16°C° 0 mm 5 mps 740 mmHg 74%
20:00 +15°C° 0 mm 4 mps 740 mmHg 77%
21:00 +14°C° 0 mm 4 mps 741 mmHg 80%
22:00 +13°C° 0 mm 4 mps 741 mmHg 82%
23:00 +12°C° 0 mm 4 mps 741 mmHg 85%

14 July, Tuesday

Time Temperature Precipitation Wind Pressure Humidity
00:00 +12°C° 0 mm 4 mps 741 mmHg 87%
01:00 +11°C° 0 mm 4 mps 741 mmHg 89%
02:00 +11°C° 0 mm 4 mps 741 mmHg 91%
03:00 +11°C° 0 mm 4 mps 741 mmHg 90%
04:00 +10°C° 0 mm 4 mps 741 mmHg 90%
05:00 +10°C° 0 mm 4 mps 741 mmHg 89%
06:00 +12°C° 0 mm 5 mps 741 mmHg 84%
07:00 +14°C° 0 mm 5 mps 741 mmHg 78%
08:00 +16°C° 0 mm 5 mps 741 mmHg 73%
09:00 +17°C° 0 mm 5 mps 741 mmHg 68%
10:00 +19°C° 0 mm 5 mps 741 mmHg 63%
11:00 +20°C° 0 mm 5 mps 742 mmHg 58%
12:00 +21°C° 0 mm 5 mps 741 mmHg 57%
13:00 +21°C° 0 mm 5 mps 741 mmHg 56%
14:00 +22°C° 0 mm 5 mps 741 mmHg 55%
15:00 +22°C° 0.1 mm 5 mps 741 mmHg 56%
16:00 +22°C° 0.1 mm 5 mps 741 mmHg 58%
17:00 +22°C° 0.1 mm 4 mps 741 mmHg 59%
18:00 +20°C° 0 mm 4 mps 741 mmHg 64%
19:00 +18°C° 0 mm 3 mps 741 mmHg 69%
20:00 +17°C° 0 mm 2 mps 741 mmHg 75%
21:00 +16°C° 0 mm 2 mps 741 mmHg 78%
22:00 +15°C° 0 mm 2 mps 742 mmHg 80%
23:00 +14°C° 0 mm 2 mps 742 mmHg 83%

15 July, Wednesday

Time Temperature Precipitation Wind Pressure Humidity
00:00 +14°C° 0 mm 2 mps 742 mmHg 86%
01:00 +14°C° 0 mm 2 mps 742 mmHg 89%
02:00 +13°C° 0 mm 2 mps 742 mmHg 91%
03:00 +13°C° 0 mm 2 mps 742 mmHg 92%
04:00 +13°C° 0 mm 2 mps 742 mmHg 92%
05:00 +13°C° 0 mm 2 mps 742 mmHg 93%
06:00 +15°C° 0 mm 2 mps 742 mmHg 87%
07:00 +17°C° 0 mm 2 mps 742 mmHg 80%
08:00 +19°C° 0 mm 2 mps 743 mmHg 74%
09:00 +20°C° 0 mm 2 mps 743 mmHg 68%
10:00 +21°C° 0 mm 2 mps 743 mmHg 62%
11:00 +24°C° 0 mm 2 mps 743 mmHg 56%
12:00 +24°C° 0 mm 2 mps 742 mmHg 55%
13:00 +24°C° 0 mm 2 mps 742 mmHg 53%
14:00 +25°C° 0 mm 2 mps 742 mmHg 51%
15:00 +25°C° 0 mm 2 mps 742 mmHg 53%
16:00 +24°C° 0 mm 2 mps 742 mmHg 55%
17:00 +24°C° 0 mm 2 mps 742 mmHg 56%
18:00 +23°C° 0 mm 2 mps 742 mmHg 60%
19:00 +21°C° 0 mm 1 mps 742 mmHg 64%
20:00 +19°C° 0 mm 1 mps 742 mmHg 68%
21:00 +18°C° 0 mm 1 mps 742 mmHg 71%
22:00 +18°C° 0 mm 1 mps 742 mmHg 74%
23:00 +16°C° 0 mm 1 mps 742 mmHg 76%

16 July, Thursday

Time Temperature Precipitation Wind Pressure Humidity
00:00 +15°C° 0 mm 1 mps 742 mmHg 78%
01:00 +14°C° 0 mm 0 mps 742 mmHg 80%
02:00 +14°C° 0 mm 0 mps 742 mmHg 82%
03:00 +14°C° 0 mm 0 mps 741 mmHg 82%
04:00 +14°C° 0 mm 0 mps 741 mmHg 81%
05:00 +14°C° 0 mm 0 mps 741 mmHg 81%
06:00 +16°C° 0 mm 0 mps 741 mmHg 75%
07:00 +18°C° 0 mm 0 mps 741 mmHg 69%
08:00 +22°C° 0 mm 1 mps 741 mmHg 63%
09:00 +23°C° 0 mm 1 mps 741 mmHg 59%
10:00 +24°C° 0 mm 1 mps 741 mmHg 55%
11:00 +25°C° 0 mm 1 mps 741 mmHg 50%
12:00 +26°C° 0 mm 2 mps 741 mmHg 50%
13:00 +26°C° 0 mm 2 mps 740 mmHg 49%
14:00 +27°C° 0 mm 2 mps 740 mmHg 49%
15:00 +27°C° 0 mm 2 mps 740 mmHg 50%
16:00 +27°C° 0 mm 2 mps 740 mmHg 51%
17:00 +27°C° 0 mm 2 mps 739 mmHg 53%
18:00 +25°C° 0 mm 2 mps 739 mmHg 57%
19:00 +23°C° 0 mm 2 mps 739 mmHg 62%
20:00 +22°C° 0 mm 1 mps 739 mmHg 66%
21:00 +21°C° 0 mm 1 mps 739 mmHg 69%
22:00 +20°C° 0 mm 1 mps 739 mmHg 72%
23:00 +19°C° 0 mm 1 mps 739 mmHg 74%
Show more